Погода в Верхнелебяжьем

Россия / Астраханская область     46°45′00″N   47°48′41″E
темп.,
°C
ветер,
м/с
пор.,
м/с
влажн.,
%
обл.,
%
осадки,
мм/ч
давл.,
гПа
погр.,
м
23 июня, ср
ср2301:00+29в6142595 0.0 1015330
04:00+29в71528100 0.0 1015386
07:00+30вюв8142929 0.0 1016515
10:00+36ююв8101575 0.0 10161236
13:00+38ююв88121 0.0 10152317
16:00+38юв76120 0.0 10152738
19:00+35вюв77140 0.0 10151570
22:00+28юв47200 0.0 101692
24 июня, чт
чт2401:00+26вюв44230 0.0 101546
04:00+25в34224 0.0 101539
07:00+28всв47232 0.0 1015178
10:00+36вюв56150 0.0 10151100
13:00+39юв45118 0.0 10143347
16:00+40ююв759100 0.0 10133538
19:00+36ююв7813100 0.0 1013896
22:00+30юв451936 0.0 101456
25 июня, пт
пт2501:00+27ююв33215 0.0 101317
04:00+26св232167 0.0 101312
07:00+29всв482391 0.0 1013208
10:00+37вюв671410 0.0 10121313
13:00+39юв7813100 0.0 10112915
16:00+39в4615100 0.0 10101645
19:00+38ююв5715100 0.0 1010537
22:00+31юв462598 0.0 101187
26 июня, сб
сб2601:00+29ю44295 0.0 101045
04:00+27св33311 0.0 101025
07:00+31в352629 0.0 1010142
10:00+38вюв561533 0.0 10091163
13:00+41вюв4611100 0.0 10083469
16:00+42ююв861184 0.0 10074195
19:00+40юв771499 0.0 10071902
22:00+32ююв5102411 0.0 1008178
27 июня, вс
вс2701:00+28ююв483699 0.0 1008140
04:00+27в454080 0.0 100873
07:00+30вюв483614 0.0 1009236
10:00+36юв572274 0.0 1009834
13:00+40юв771577 0.0 10082260
16:00+40вюв781565 0.0 10071797
19:00+36юв782642 0.0 10071033
22:00+29вюв465162 0.0 1008145